Location: Krasnoyarskiy Pitomnik
(51.1333°N, 71.6167°E)
Time: 15:30:44
(UTC+00:00)

SKYMED 2 - Pass Details

Date: 22 October 2021
Orbit: 621 x 623 km, 97.9° (Epoch: 27 November)

Event Time Altitude Azimuth Distance (km) Brightness Sun altitude
Rises 13:09:20 0° 17° (NNE) 2,918 6.8 -10.5°
Reaches altitude 10° 13:11:35 10° 22° (NNE) 2,006 5.9 -10.9°
Maximum altitude 13:15:52 55° 100° (E) 755 3.6 -11.5°
Drops below altitude 10° 13:20:07 10° 179° (S) 1,989 6.2 -12.2°
Sets 13:22:20 0° 184° (S) 2,890 7.1 -12.5°
